Regional Weather Roundup
Issued by NWS

Home | Current Version | Previous Version | Text Only | Print | Product List | Glossary On
Versions: 1 2 3 4 5 6 7 8 9 10 11 12 13 14 15 16 17 18 19 20 21 22 23 24 25 26 27
000
ASUS45 KREV 151410
RWRNV
NEVADA REGIONAL WEATHER ROUNDUP
NATIONAL WEATHER SERVICE RENO NV
600 AM PST FRI DEC 15 2017

NOTE: "FAIR" INDICATES FEW OR NO CLOUDS BELOW 12,000 FEET WITH NO
SIGNIFICANT WEATHER AND/OR OBSTRUCTIONS TO VISIBILITY.

NVZ001-003-004-151500-
WESTERN NEVADA

CITY           SKY/WX    TMP DP  RH WIND       PRES   REMARKS
RENO           PTCLDY    22  17  81 S5        30.32R
CARSON CITY    FAIR      19  14  79 W5        30.34R
MINDEN         FAIR      10   9  92 CALM      30.34S
SLIDE MTN        N/A     43 -13   9 W38         N/A
PYRAMID LAKE     N/A     34 N/A N/A W3          N/A
FALLON         CLOUDY    14   7  73 SW5       30.31
LOVELOCK       CLOUDY     6   2  83 CALM      30.32R
HAWTHORNE      CLEAR     25  16  68 W7        30.30S
$$

NVZ002-CAZ072-073-151500-
NORTHERN AND CENTRAL SIERRA

CITY           SKY/WX    TMP DP  RH WIND       PRES   REMARKS
S. LAKE TAHOE  PTCLDY    20  15  81 CALM      30.35S
TRUCKEE        CLEAR     18  14  86 CALM      30.35R
SQUAW VLY 8000   N/A     45   1  16 SW16        N/A
BLUE CANYON    PTCLDY    54   1  11 E3        30.30S
MAMMOTH LAKES  FAIR      16   4  58 CALM      30.38S
$$

NVZ030-031-036-151500-
NORTHERN NEVADA

CITY           SKY/WX    TMP DP  RH WIND       PRES   REMARKS
ELKO           MOCLDY    13  10  88 NE3       30.32F
WINNEMUCCA     CLOUDY    10   5  80 CALM      30.29F
WENDOVER       FOG       12  10  92 S3        30.35F VSB 1/4
$$

NVZ035-037-151500-
CENTRAL NEVADA

CITY           SKY/WX    TMP DP  RH WIND       PRES   REMARKS
ELY            PTCLDY    11   0  61 S15       30.32S WCI  -5
EUREKA           N/A     15   9  76 SW5       30.30
$$

NVZ013-014-151500-
SOUTH CENTRAL NEVADA

CITY           SKY/WX    TMP DP  RH WIND       PRES   REMARKS
TONOPAH        MOCLDY    20   2  45 N9        30.34S
$$

NVZ017-020-022-151500-
SOUTHERN NEVADA

CITY           SKY/WX    TMP DP  RH WIND       PRES   REMARKS
LAS VEGAS      CLEAR     41  15  35 SW8       30.28R
N. LAS VEGAS   CLEAR     39  17  41 CALM      30.28S
NELLIS AFB     CLEAR     37  13  36 CALM      30.28F
HENDERSON      CLEAR     37  15  40 SE8       30.30S
MERCURY        PTCLDY    35  12  38 E7        30.28R
$$




USA.gov is the U.S. government's official web portal to all federal, state and local government web resources and services.